Regional Weather Roundup
Issued by NWS Upton, NY

Current Version | Previous Version | Graphics & Text | Print | Product List | Glossary Off
Versions: 1 2 3 4 5 6 7 8 9 10 11 12 13 14 15 16 17 18 19 20 21 22 23 24 25 26 27 28 29 30 31 32 33 34 35 36 37 38 39 40 41 42 43 44 45 46 47 48 49 50

351
ASUS41 KOKX 170908
RWROKX

REGIONAL WEATHER ROUNDUP
NATIONAL WEATHER SERVICE NEW YORK NY
500 AM EDT TUE OCT 17 2017

NOTE: "FAIR" INDICATES FEW OR NO CLOUDS BELOW 12,000 FEET WITH NO
SIGNIFICANT WEATHER AND/OR OBSTRUCTIONS TO VISIBILITY.

NYZ071-072-176-178-NJZ106-104-171000-
NEW YORK CITY METRO AREA

CITY           SKY/WX    TMP DP  RH WIND       PRES   REMARKS
Central Park   PTCLDY    44  32  62 VRB5      30.29R
Bronx Bot Gard   N/A     41  32  70 E2        30.29R
LaGuardia APRT CLEAR     46  35  65 N8        30.26R
Kennedy INTL   CLEAR     45  33  63 N12       30.27R
Breezy Point     N/A     45 N/A N/A N9G15       N/A
Newark/Liberty CLEAR     43  32  65 N8        30.28R
Teterboro      CLEAR     41  32  70 N5        30.27R
$$

NYZ177-179-078>081-171000-
LONG ISLAND NEW YORK

CITY           SKY/WX    TMP DP  RH WIND       PRES   REMARKS
Jones Beach      N/A     45 N/A N/A N12         N/A
Matinecock PT    N/A     46 N/A N/A N18         N/A
Farmingdale    CLEAR     44  34  67 N7        30.26R
MacArthur/ISP  CLEAR     44  34  67 N6        30.24R
Shirley        CLEAR     45  37  73 N5        30.25R
Mt Sinai Harb    N/A    N/A N/A N/A N17         N/A
Westhampton    PTCLDY    45  34  65 N10       30.25R
East Hampton   FAIR      44  33  65 N6        30.23R
Montauk        NOT AVBL
$$

NYZ052-065-067-171000-
HUDSON VALLEY

CITY           SKY/WX    TMP DP  RH WIND       PRES   REMARKS
White Plains   CLEAR     37  31  78 NW6       30.25R WCI  32
Larchmont Harb   N/A     43 N/A N/A NW8         N/A
Croton On Huds   N/A     37 N/A N/A NE5         N/A  WCI  34
Newburgh       CLEAR     36  34  93 CALM      30.27S
Montgomery     CLEAR     35  32  88 CALM      30.26R
Poughkeepsie   CLEAR     32  29  88 CALM      30.27R
Albany         CLEAR     36  30  79 CALM      30.29R
$$

NJZ001-105-106-008-010-013-015-019>022-104-171000-
NEW JERSEY

CITY           SKY/WX    TMP DP  RH WIND       PRES   REMARKS
Newark/Liberty CLEAR     43  32  65 N8        30.28R
Teterboro      CLEAR     41  32  70 N5        30.27R
Caldwell       CLEAR     36  34  92 CALM      30.28R
Somerville     CLEAR     35  32  88 CALM      30.27R
Linden         FAIR      41  31  68 N5        30.29R
Perth Amboy      N/A     41 N/A N/A N7          N/A
Sussex         CLEAR     33  31  92 CALM      30.28R
Andover          N/A     34  33  96 CALM      30.29R
Trenton        CLEAR     39  32  76 NW3       30.28R
Millville      CLEAR     42  35  76 NW5       30.28R
Atlantic City  PTCLDY    40  34  79 N8        30.27R WCI  34
Wrightstown    CLEAR     37  32  81 N5        30.26R WCI  34
Toms River       N/A     36  33  89 NW6       30.28R WCI  31
Belmar         PTCLDY    38  32  79 NW6       30.27R WCI  33
$$

PAZ047>061-062-071-171000-
EASTERN PENNSYLVANIA

CITY           SKY/WX    TMP DP  RH WIND       PRES   REMARKS
Philadelphia   CLEAR     42  32  67 N6        30.29R
Allentown      CLEAR     40  31  70 W6        30.29R
Scranton       CLEAR     37  32  82 CALM      30.29R
$$

CTZ002-004>006-009-010-012-RIZ004-006-007-MAZ004-011-015-171000-
SOUTHERN NEW ENGLAND
 IN CT

CITY           SKY/WX    TMP DP  RH WIND       PRES   REMARKS
Bradley INTL   CLEAR     35  31  85 N6        30.25R WCI  30
Hartford       CLEAR     39  34  82 CALM      30.25R
Danbury        CLEAR     35  32  88 CALM      30.27R
Wtrbury/Oxford CLEAR     35  32  88 NW9       30.24R WCI  28
Norwalk Harbor   N/A     41 N/A N/A NW8         N/A
Bridgeport     CLEAR     42  34  73 N6        30.25R
Meriden        CLEAR     36  32  85 CALM      30.25R
New Haven      CLEAR     39  32  76 E3        30.25R
Chester        FAIR      37  34  87 CALM      30.23R
Groton         CLEAR     40  33  76 N7        30.23R
Wilimantic     CLEAR     35  34  96 CALM      30.25R

 IN RI

CITY           SKY/WX    TMP DP  RH WIND       PRES   REMARKS
Providence     PTCLDY    40  33  76 N8        30.23R WCI  34
Block Island   CLEAR     45  34  65 N14G23    30.22R
Westerly       PTCLDY    40  34  79 NW3       30.23R
 IN MA

CITY           SKY/WX    TMP DP  RH WIND       PRES   REMARKS
Boston         PTCLDY    41  33  73 NW14      30.22R
Worcester      CLEAR     36  27  69 NW5       30.21R WCI  32
Westfield      CLEAR     33  32  96 CALM      30.25R
Provincetown   MOCLDY    49  34  56 N18G29    30.19R
Nantucket      CLOUDY    50  40  68 N16       30.16R
$$

ANZ330-335-338-340-345-350-353-355-171000-
COASTAL MARINE OBSERVATIONS


STATION/POSITION TIME  SKY/WX   TEMP    WIND        PRES    VSBY  WAVE
                                AIR SEA DIR/SP/G                  HT/PER
                 (UTC)          (F)     (DEG/KT/KT) (MB)    (MI)  (FT/S)
NY HARB ENTRANCE 0850            49 65  360/ 19/ 23 1023.3          3/ 4
20 S FIRE ISLAND 0850            51 64   10/ 19/ 23 1023.2          5/ 5
GREAT SOUTH BAY  0815            48 63  360/ 12/ 14   N/A
15 E BARNEGAT LI 0830               67                N/A           5/ 5
HUDSON CANYON    0850            55 65   10/ 17/ 21 1021.5          5/ 7
KINGS POINT      0824            48 65   30/ 14/ 17 1025.1
EXECUTION ROCKS  0830            48      10/ 12/ 16   N/A
WESTERN LI SOUND 0749            47     360/ 14/ 17   N/A           1
CENTRAL LI SOUND 0815            48     360/ 17/ 21   N/A           2
EASTERN LI SOUND NOT AVBL
ROBBINS REEF     0842            45      20/  8/ 10 1025.4
$$


>>>>>>>>>>>>>>>>>>>>>>>>>>>> KEY <<<<<<<<<<<<<<<<<<<<<<<<<<<
>                                                          <
>     SKY/WX - Sky Condition/Present Weather               <
>     TMP    - Temperature in Fahrenheit                   <
>     DP     - Dew Point in Fahrenheit                     <
>     RH     - Relative Humidity in Percent                <
>     WIND   - Direction (from) and Speed in MPH           <
>     PRES   - Mean Sea Level Pressure (inches of Hg)      <
>     WCI    - Wind Chill Index                            <
>     VSB    - VISIBILITY IN MILES                         <
>     HX     - HEAT INDEX                                  <
>     TC     - TEMPERATURE IN CELSIUS                      <
>     VRB    - VARIABLE WIND DIRECTION                     <
>                                                          <
>>>>>>>>>>>>>>>>>>>>>>>>>>>> KEY <<<<<<<<<<<<<<<<<<<<<<<<<<<




USA.gov is the U.S. government's official web portal to all federal, state and local government web resources and services.